カタログに戻る

CZ-6A DEB

運用中SSO
NORAD 56664·DEBRIS·🇨🇳 China

打ち上げ Nov 11, 2022 から Taiyuan Satellite Launch Center

Loading…

次のパス (今後24時間)

TLE

最新Source: Space-Track

元期: Sep 13, 2026, 06:58 UTC

1 56664U 22151AGQ 26256.29059035  .00000287  00000-0  17408-3 0  9992
2 56664  98.8259 260.0336 0034433  70.4189 290.0696 14.13648029179924

AllMySatでCZ-6A DEBをリアルタイム追跡

Download on the App Store